Overview Statistics Trail Chart Weather Telemetry Raw packets
 

This is the latest recevied weather packets stored in our database for station/object HS5AU-13. If no packets are shown the sender has not sent any weather packets the latest 10 day(s).

<< 24 25 26 27 28 29 30 >>
Time Temp. Humidity Pressure Rain* Wind** Luminosity Snow
1788231303 23.89° C 99% 1003.4 hPa 0 mm - 235 W/m² -
1788230703 24.44° C 96% 1003.5 hPa 0 mm - 149 W/m² -
1788230103 23.89° C 99% 1003.2 hPa 0 mm - 292 W/m² -
1788229503 23.89° C 99% 1003.1 hPa 0 mm - 188 W/m² -
1788228903 23.89° C 99% 1004.2 hPa 0 mm - 273 W/m² -
1788228303 23.33° C 99% 1004.2 hPa 0 mm - 208 W/m² -
1788227703 23.33° C 99% 1004.4 hPa 0 mm - 216 W/m² -
1788227103 22.78° C 99% 1005.1 hPa 0 mm - 515 W/m² -
1788226503 22.78° C 99% 1005.4 hPa 0 mm - 349 W/m² -
1788225911 22.78° C 99% 1005.3 hPa 0 mm - 109 W/m² -
1788225303 22.22° C 99% 1005 hPa 0 mm - 147 W/m² -
1788224703 22.22° C 99% 1004.7 hPa 0 mm - 118 W/m² -
1788224103 22.22° C 99% 1004.2 hPa 0 mm - 110 W/m² -
1788223503 22.22° C 99% 1003.8 hPa 0 mm - 208 W/m² -
1788222903 22.78° C 99% 1003.7 hPa 0 mm - 164 W/m² -
1788222303 22.22° C 99% 1003.7 hPa 0 mm - 175 W/m² -
1788221703 21.67° C 99% 1003.6 hPa 0 mm - 81 W/m² -
1788221103 21.11° C 99% 1003.4 hPa 0 mm - 78 W/m² -
1788220503 21.11° C 99% 1003.5 hPa 0 mm - 58 W/m² -
1788219903 21.11° C 99% 1003.9 hPa 0 mm - 79 W/m² -
1788219303 21.11° C 99% 1004.1 hPa 0 mm - 31 W/m² -
1788218703 21.11° C 99% 1003.9 hPa 0 mm - 17 W/m² -
1788218103 21.11° C 99% 1003.9 hPa 0 mm - 7 W/m² -
1788217503 21.11° C 99% 1004.1 hPa 0 mm - 2 W/m² -
1788216902 21.11° C 99% 1004.4 hPa 0 mm - 2 W/m² -

* Rain latest hour (hover to see other rain measurements)
** Current wind speed in m/s (hover to see current wind gust speed)